星链-3174 (STARLINK-3174 )

导读

STARLINK-3174是美国太空探索技术公司(SpaceX)星链星座的卫星,于北京时间2022年2月3日8时发射。作为星链低轨互联网星座的组成部分,它运行于近地轨道,为全球偏远地区提供互联网接入服务,也支持低延迟通信应用。它是SpaceX大规模扩展星链星座的重要节点,推动全球卫星互联网组网进程。

基本信息
目录编号:
51468
目录名称:
STARLINK-3174
国际标识:
2022-010N
轨道中心:
EARTH
卫星名称:
星链-3174
卫星全名:
星链-3174 (STARLINK-3174 )
卫星状态:
在轨 (已飞行1681 天)
发射日期:
2022-02-03 UTC
国别 :
美国 (US)
星等 :
--
该卫星已列入 空间交会检测服务 Space Conjunction Data Service (SCDS) ,当前飞行风险评估等级: 高风险
轨道信息
数据来源 国际轨道数据
星历时间: 2026-09-11T12:00:09+0800
11小时前
查看轨道信息
半长轴: 6840.863km
偏心率: 0.0001581
轨道倾角: 53.161°
近地点辐角 99.815°
升交点赤经 159.012°
平近点角 260.303°
近地点: 461.644km
远地点: 463.808km
周期: 93.848分钟
每日圈数: 15.343924
详细信息
固有亮度:
5
最大亮度:
2.5
卫星平台:
Starlink v1.5
覆盖范围:
全球
运营商:
太空探索技术公司
运营商所在国:
美国
制造商(研发单位):
太空探索技术公司
制造商所在国:
美国
使用方式:
暂无
卫星简介
星链(Starlink)计划是由太空探索技术公司(SpaceX)提出的一个巨型低轨卫星互联网星座项目,计划在2019年至2024年间在太空搭建由约1.2万颗卫星组成的“星链”网络,其中1584颗将部署在地球上空550千米处的近地轨道,并从2020年开始工作。该卫星仍在工作。
2D轨道图
3D轨道图
轨道高度分析图
轨道倾角分析图
轨道综合分析图
查看轨道综合分析图
交会数据列表
事件ID 空间交会对象 最接近时刻(TCA) 交会距离 交会风险概率(CRP) 交会风险指数(CRI) 操作
CDM_260913-044505-146806-621721
2026-09-13T
04:45:09+0000
0.025 km
近距离
1.567805E-3 极高风险 0.99
CDM_260913-145405-146806-621721
2026-09-13T
14:54:48+0000
1.052 km
极远距离
1.364589E-5 中风险 0.58
CDM_260912-105905-146806-509421
2026-09-12T
10:59:26+0000
1.364 km
极远距离
5.908172E-6 低风险 0.5
CDM_260912-224205-146806-509421
2026-09-12T
22:42:53+0000
1.412 km
极远距离
5.269373E-6 低风险 0.49
CDM_260912-123305-146806-509421
2026-09-12T
12:33:14+0000
1.532 km
极远距离
4.053091E-6 低风险 0.47
CDM_260911-165005-146806-303121
2026-09-11T
16:50:14+0000
1.503 km
极远距离
3.138434E-6 低风险 0.45
CDM_260913-001605-146806-509421
2026-09-13T
00:16:40+0000
1.800 km
极远距离
2.513253E-6 低风险 0.43
CDM_260911-204405-146806-303121
2026-09-11T
20:44:42+0000
1.876 km
极远距离
1.665525E-6 低风险 0.39
CDM_260913-162805-146806-621721
2026-09-13T
16:28:35+0000
2.087 km
极远距离
1.64499E-6 低风险 0.39
CDM_260912-221905-146805-317122
2026-09-12T
22:19:05+0000
2.837 km
极远距离
1.261962E-6 低风险 0.37
与全量物体交会距离演化趋势
与全量物体交会风险概率演化趋势